Vorticity
nan nan nan nan nan nan nan nan nan nan nan nan nan nan nan nan nan nan nan nan nan nan nan nan nan nan nan nan nan nan nan nan nan nan nan nan nan nan nan nan nan nan nan nan nan
nan 7 7 7 7 7 7 6 7 7 7 7 8 8 7 13 18 9 11 9 6 8 7 7 10 6 4 7 7 9 7 5 5 4 10 10 9 7 8 2 1 8 17 16 nan
nan 7 7 6 7 7 7 7 7 7 7 7 8 8 7 15 14 8 14 13 6 4 7 10 7 6 7 6 8 8 6 6 4 4 12 15 9 8 7 5 8 13 10 6 nan
nan 7 7 7 7 7 7 7 7 7 7 8 8 9 18 17 6 7 13 12 8 8 8 6 5 7 7 8 8 8 6 4 3 8 18 16 5 5 5 14 24 20 7 5 nan
nan 7 7 8 7 7 7 7 7 7 7 8 9 12 18 10 9 9 11 10 7 6 7 5 8 8 8 7 6 6 6 4 7 14 16 11 5 4 9 17 19 12 7 5 nan
nan 7 7 8 7 7 7 7 7 8 8 8 8 15 14 5 11 11 8 6 6 8 7 7 9 7 7 8 8 6 5 10 14 10 9 7 5 7 12 11 9 7 6 5 nan
nan 7 7 8 8 7 7 7 7 8 10 10 12 15 8 9 6 11 7 6 7 7 8 11 9 8 7 7 8 8 9 8 9 9 9 6 2 13 15 8 6 5 6 5 nan
nan 7 8 7 8 8 7 7 10 13 16 15 13 9 6 10 6 9 7 6 8 8 11 10 7 7 7 8 9 8 10 7 5 8 7 4 8 16 11 5 5 6 5 6 nan
nan 7 8 8 8 8 7 11 17 23 17 11 9 6 8 10 12 11 8 9 7 6 9 10 7 7 9 6 6 9 10 6 8 11 7 7 8 13 10 5 5 6 6 6 nan
nan 7 8 8 8 8 15 23 19 15 11 5 7 9 10 7 12 12 10 8 8 8 4 5 7 8 7 8 11 10 7 6 6 9 8 6 7 12 10 5 5 6 6 6 nan
nan 8 8 8 7 10 20 21 15 10 5 3 2 6 6 9 10 8 11 4 5 5 8 7 7 7 11 10 6 6 4 7 10 6 8 10 10 12 12 5 6 6 7 7 nan
nan 8 9 9 8 15 16 8 9 7 11 13 5 6 7 9 8 10 12 6 4 5 7 7 10 8 12 10 1 2 5 8 7 15 13 7 12 14 12 8 9 6 7 6 nan
nan 8 9 8 16 17 10 6 4 8 9 14 15 11 15 10 6 11 7 4 8 9 8 4 10 11 6 5 7 7 9 8 9 8 11 9 11 9 9 11 10 9 8 8 nan
nan 9 9 17 17 11 9 2 9 11 8 14 12 13 11 5 7 16 11 2 3 11 10 8 8 10 7 7 8 9 13 12 12 5 3 9 10 12 10 11 10 11 9 9 nan
nan 10 11 16 15 8 2 7 15 10 6 11 14 12 10 8 7 10 10 9 9 7 4 6 10 11 8 11 5 8 19 15 7 8 7 10 5 10 11 13 12 11 10 10 nan
nan 11 14 13 9 5 3 15 15 9 8 9 13 10 6 7 7 12 9 4 9 9 9 7 10 10 8 12 14 3 2 7 9 7 7 8 11 8 8 8 11 11 11 12 nan
nan 13 12 6 7 8 14 13 9 7 6 9 12 13 7 8 7 8 12 8 3 8 7 12 11 11 12 10 13 5 2 4 7 6 8 12 11 5 6 11 12 12 15 17 nan
nan 16 12 6 2 10 15 9 7 8 8 6 11 14 11 4 9 6 6 9 9 5 5 12 13 12 7 7 12 11 4 8 11 9 9 12 9 3 5 14 18 17 16 18 nan
nan 14 10 17 11 7 13 8 8 7 8 11 12 10 11 7 12 13 8 9 17 6 1 7 6 12 10 10 14 10 9 10 11 9 8 9 10 8 5 4 9 15 12 12 nan
nan 9 10 17 14 7 8 8 8 10 8 9 7 11 13 13 6 11 9 11 12 9 8 9 9 11 10 7 9 14 12 8 9 10 9 7 9 10 0 2 10 10 8 8 nan
nan 8 11 12 8 10 11 8 9 11 9 8 8 10 9 11 12 6 8 13 12 11 9 7 8 7 11 12 7 9 4 7 8 10 14 9 10 6 6 12 12 7 7 9 nan
nan 10 10 9 8 10 13 8 9 8 8 9 9 7 7 10 15 9 4 9 14 10 11 7 8 7 10 10 11 11 13 8 10 9 6 10 10 10 18 16 10 7 7 8 nan
nan 12 8 11 12 8 9 11 8 9 7 8 10 8 8 7 10 12 9 13 13 5 8 7 5 12 12 8 7 9 10 10 10 11 10 6 10 12 12 8 8 8 8 7 nan
nan 9 8 9 10 13 11 10 8 8 10 10 9 9 8 9 8 9 11 14 15 3 9 10 8 9 5 6 9 13 11 6 5 13 8 11 11 9 6 5 8 7 6 7 nan
nan 7 12 13 9 9 10 11 9 9 11 7 8 8 5 10 11 7 8 11 12 8 6 8 10 10 8 12 10 10 14 14 8 10 9 17 19 11 5 5 6 6 7 7 nan
nan 10 8 11 15 9 8 11 9 10 10 6 6 10 11 6 1 5 12 9 10 12 5 6 9 10 12 15 12 7 10 10 12 9 13 12 13 13 9 9 9 7 5 6 nan
nan nan nan nan nan nan nan nan nan nan nan nan nan nan nan nan nan nan nan nan nan nan nan nan nan nan nan nan nan nan nan nan nan nan nan nan nan nan nan nan nan nan nan nan nan
CAPE
1 1 1 0 3 1 2 3 1 2 2 1 1 1 1 0 0 0 0 0 0 6 0 0 26 18 708 288 405 456 338 541 546 852 489 344 218 33 56 30 0 39 204 362 746
1 2 1 1 0 1 1 2 2 2 1 1 1 1 1 0 0 0 0 9 0 94 0 426 955 799 455 643 470 264 299 451 392 746 835 196 60 117 162 31 42 350 581 726 649
1 2 1 1 0 1 1 2 2 2 1 1 1 1 0 0 0 0 0 24 4 33 14 325 320 390 214 456 365 207 303 477 702 660 665 9 39 58 201 93 33 378 604 563 568
1 4 1 1 1 0 1 3 2 2 1 1 0 1 0 0 0 0 0 245 176 0 649 384 119 7 38 47 188 394 530 469 341 637 704 0 47 65 52 32 18 411 403 369 447
1 2 1 1 1 0 1 3 2 1 1 0 0 0 0 0 0 0 97 228 0 20 346 4 0 4 126 107 448 476 154 283 618 695 0 9 53 46 6 82 258 383 270 267 150
0 2 1 1 0 1 1 2 1 1 1 0 0 0 0 0 0 0 0 0 0 209 703 737 95 53 235 194 401 466 495 524 731 288 5 11 52 39 0 97 241 281 279 314 279
1 1 2 1 1 0 1 3 1 1 0 0 0 0 0 0 0 0 0 0 0 13 112 602 211 693 693 419 260 267 460 441 336 347 62 10 33 90 0 25 165 191 251 331 452
1 1 2 1 1 1 1 2 0 0 0 0 0 0 0 0 0 0 0 0 0 25 33 446 344 841 1134 597 332 489 544 629 251 396 111 135 441 54 0 2 51 107 174 279 400
1 1 1 1 1 0 2 1 0 0 0 0 0 0 0 0 0 0 0 0 0 36 495 543 623 262 388 220 211 252 468 414 381 98 228 99 193 65 0 5 36 29 53 182 302
1 2 1 1 0 0 0 0 0 0 0 0 0 0 0 0 0 0 0 13 167 91 154 259 287 598 795 393 219 252 155 142 215 254 236 145 177 53 14 28 67 48 32 37 65
1 1 1 0 1 0 0 0 0 0 0 0 0 0 0 0 0 0 0 0 9 0 193 112 258 394 546 489 240 216 450 622 569 465 408 371 401 260 98 73 100 100 93 90 85
0 1 1 0 1 0 0 0 0 0 0 0 0 0 0 0 0 0 0 0 2 4 87 30 114 101 41 447 259 382 430 403 290 167 651 347 474 394 192 203 205 175 160 167 179
6 1 1 1 1 0 0 0 0 0 0 0 0 0 0 0 0 0 0 0 0 1 44 102 28 43 14 177 191 227 259 316 222 398 438 473 539 617 498 314 214 207 203 212 248
5 1 0 1 0 0 0 0 0 0 0 0 0 0 0 0 3 0 0 0 30 41 29 98 46 151 237 271 218 321 192 172 268 390 490 37 55 115 449 466 445 468 441 379 325
4 1 0 0 0 0 0 0 0 0 0 0 0 0 0 5 4 80 24 32 26 381 363 135 154 215 285 325 269 350 0 135 208 193 382 303 397 195 0 309 554 615 665 654 738
5 2 0 0 0 0 0 0 0 0 0 0 0 0 0 0 0 383 3 86 130 58 457 340 175 85 169 170 207 5 0 0 0 22 223 11 407 125 61 296 443 501 630 799 995
2 1 0 0 0 0 0 0 0 0 0 66 14 0 0 0 0 276 73 46 129 240 158 51 94 157 197 226 150 16 8 79 105 125 120 0 213 250 128 0 10 230 530 510 617
1 0 0 0 0 0 0 0 0 0 0 5 63 0 0 0 0 0 81 57 67 71 124 144 115 66 70 132 7 153 49 32 99 25 77 0 216 108 0 0 0 0 0 0 0
0 0 0 0 0 0 0 0 0 0 49 175 47 76 5 23 1 0 31 31 62 83 148 173 103 12 21 39 0 2 2 0 0 0 9 23 58 4 0 0 0 10 41 63 83
0 0 0 0 0 0 0 0 0 0 278 191 87 28 112 25 7 26 56 30 82 17 46 175 278 36 0 0 0 0 0 0 0 29 18 0 0 60 29 0 0 76 154 179 318
0 0 0 0 0 0 0 0 0 0 172 158 62 0 0 76 28 9 113 136 143 121 111 88 93 157 5 0 0 0 0 0 0 0 22 5 0 0 0 0 0 0 65 379 697
0 0 0 0 0 0 0 0 0 0 57 98 30 3 0 0 180 81 227 138 25 52 149 109 96 222 114 4 0 0 0 0 0 0 0 0 0 0 0 0 0 3 318 532 792
0 0 0 0 0 0 0 0 0 0 0 1 8 0 0 5 139 253 237 127 53 58 109 3 86 282 0 0 0 0 0 0 0 0 0 0 3 0 0 0 0 69 252 409 446
0 0 0 0 0 0 0 0 0 0 0 0 2 0 0 21 87 123 196 183 196 85 21 7 11 77 50 6 0 0 0 0 0 0 0 0 5 0 0 0 0 100 238 349 425
0 0 0 0 0 0 0 0 0 0 0 0 19 0 0 0 9 67 68 59 98 176 33 11 121 7 8 0 0 0 0 0 0 0 0 0 1 53 0 0 0 98 213 308 379
0 0 0 0 0 0 0 0 0 0 0 0 6 10 0 0 0 0 1 34 215 229 42 0 8 0 0 0 0 0 0 0 0 0 0 0 0 0 0 0 0 179 214 290 282
0 0 0 0 0 0 0 0 0 0 0 0 0 0 0 18 0 0 0 0 0 223 64 0 7 0 22 0 0 0 0 0 0 0 0 1 0 0 0 0 0 138 223 253 251